�������l�o���
Date,Time,MP-1(��Sv/h),MP-2(��Sv/h),MP-3(��Sv/h),MP-4(��Sv/h),MP-5(��Sv/h),MP-6(��Sv/h),MP-7(��Sv/h),MP-8(��Sv/h),����,����(m/s),���J
2019/11/20,00:00,0.735,1.060,0.702,1.313,0.927,0.417,0.728,0.688,��,2.1,��
2019/11/20,00:10,0.735,1.062,0.701,1.316,0.928,0.417,0.728,0.688,���쐼,4.6,��
2019/11/20,00:20,0.736,1.062,0.701,1.314,0.929,0.416,0.729,0.688,���쐼,4.5,��
2019/11/20,00:30,0.736,1.063,0.700,1.316,0.928,0.417,0.729,0.688,��,6.6,��
2019/11/20,00:40,0.735,1.062,0.702,1.313,0.929,0.418,0.728,0.690,��,6.9,��
2019/11/20,00:50,0.737,1.063,0.699,1.315,0.927,0.417,0.726,0.690,���k��,7.2,��
2019/11/20,01:00,0.736,1.060,0.701,1.317,0.931,0.418,0.730,0.687,�k��,4.6,��
2019/11/20,01:10,0.736,1.062,0.700,1.315,0.929,0.418,0.729,0.688,���k��,7.4,�L
2019/11/20,01:20,0.737,1.060,0.699,1.317,0.927,0.417,0.729,0.689,���k��,10.4,�L
2019/11/20,01:30,0.734,1.060,0.700,1.317,0.929,0.417,0.728,0.689,��,8.8,�L
2019/11/20,01:40,0.736,1.064,0.702,1.315,0.927,0.417,0.727,0.688,���k��,7.2,��
2019/11/20,01:50,0.738,1.062,0.701,1.315,0.928,0.417,0.730,0.690,��,11.1,��
2019/11/20,02:00,0.735,1.061,0.699,1.316,0.925,0.417,0.729,0.687,��,9.7,��
2019/11/20,02:10,0.734,1.061,0.699,1.315,0.929,0.418,0.729,0.689,��,6.9,��
2019/11/20,02:20,0.735,1.057,0.699,1.315,0.927,0.417,0.731,0.688,��,7.7,��
2019/11/20,02:30,0.734,1.060,0.700,1.318,0.928,0.418,0.730,0.688,���k��,7.5,��
2019/11/20,02:40,0.734,1.061,0.699,1.316,0.930,0.417,0.727,0.689,���k��,6.1,��
2019/11/20,02:50,0.735,1.061,0.699,1.315,0.926,0.417,0.729,0.689,���k��,6.9,��
2019/11/20,03:00,0.736,1.061,0.701,1.314,0.929,0.417,0.729,0.686,���k��,3.9,��
2019/11/20,03:10,0.734,1.060,0.701,1.315,0.929,0.417,0.729,0.688,��,2.7,��
2019/11/20,03:20,0.735,1.060,0.700,1.314,0.930,0.417,0.730,0.690,���쐼,1.4,�L
2019/11/20,03:30,0.734,1.059,0.698,1.315,0.927,0.416,0.728,0.689,��,2.1,��
2019/11/20,03:40,0.735,1.063,0.701,1.313,0.928,0.417,0.729,0.688,��,3.8,��
2019/11/20,03:50,0.735,1.061,0.702,1.315,0.926,0.418,0.728,0.690,���k��,5.8,�L
2019/11/20,04:00,0.736,1.061,0.701,1.314,0.927,0.417,0.729,0.688,���k��,4.1,�L
2019/11/20,04:10,0.735,1.059,0.700,1.316,0.929,0.418,0.728,0.688,�k�k��,5.0,�L
2019/11/20,04:20,0.735,1.058,0.702,1.317,0.927,0.420,0.727,0.688,���k��,2.5,�L
2019/11/20,04:30,0.737,1.060,0.701,1.315,0.926,0.419,0.727,0.688,���k��,4.7,�L
2019/11/20,04:40,0.736,1.058,0.702,1.316,0.925,0.418,0.727,0.690,���k��,6.1,�L
2019/11/20,04:50,0.735,1.060,0.701,1.315,0.923,0.418,0.727,0.688,��,5.6,�L
2019/11/20,05:00,0.734,1.059,0.701,1.317,0.926,0.417,0.728,0.687,���k��,5.2,�L
2019/11/20,05:10,0.733,1.058,0.701,1.316,0.923,0.419,0.727,0.688,�k��,4.9,�L
2019/11/20,05:20,0.733,1.058,0.701,1.315,0.923,0.417,0.725,0.689,�k��,3.8,��
2019/11/20,05:30,0.733,1.055,0.699,1.312,0.921,0.417,0.727,0.687,�k��,3.3,��
2019/11/20,05:40,0.731,1.056,0.699,1.313,0.921,0.416,0.727,0.688,�k��,3.4,��
2019/11/20,05:50,0.732,1.054,0.699,1.311,0.922,0.416,0.727,0.687,�k�k��,3.6,�L
2019/11/20,06:00,0.731,1.058,0.698,1.314,0.919,0.414,0.726,0.686,�k��,3.3,�L
2019/11/20,06:10,0.731,1.055,0.701,1.313,0.919,0.415,0.726,0.688,�k�k��,3.4,�L
2019/11/20,06:20,0.732,1.056,0.697,1.311,0.921,0.417,0.727,0.685,�k��,3.1,�L
2019/11/20,06:30,0.733,1.053,0.698,1.311,0.922,0.415,0.725,0.687,�k��,3.8,��
2019/11/20,06:40,0.731,1.054,0.698,1.311,0.918,0.415,0.727,0.688,�k��,4.4,�L
2019/11/20,06:50,0.730,1.053,0.698,1.311,0.920,0.415,0.726,0.688,�k��,4.7,��
2019/11/20,07:00,0.733,1.051,0.697,1.312,0.920,0.415,0.725,0.687,�k��,4.7,�L
2019/11/20,07:10,0.730,1.055,0.698,1.310,0.920,0.415,0.727,0.688,���k��,6.3,�L
2019/11/20,07:20,0.731,1.052,0.697,1.312,0.919,0.416,0.726,0.686,�k��,4.7,�L
2019/11/20,07:30,0.729,1.055,0.698,1.313,0.920,0.416,0.726,0.688,���k��,4.1,�L
2019/11/20,07:40,0.729,1.052,0.696,1.309,0.919,0.416,0.726,0.687,�k��,4.9,�L
2019/11/20,07:50,0.732,1.054,0.696,1.312,0.921,0.415,0.727,0.687,�k��,6.1,��
2019/11/20,08:00,0.731,1.054,0.698,1.313,0.921,0.414,0.726,0.688,�k��,5.5,�L
2019/11/20,08:10,0.730,1.055,0.698,1.309,0.919,0.415,0.726,0.686,�k��,6.4,��
2019/11/20,08:20,0.732,1.056,0.698,1.313,0.920,0.413,0.726,0.689,�k��,6.6,��
2019/11/20,08:30,0.733,1.054,0.697,1.310,0.919,0.413,0.726,0.686,���k��,8.3,��
2019/11/20,08:40,0.730,1.055,0.696,1.313,0.921,0.416,0.724,0.688,�k��,7.7,��
2019/11/20,08:50,0.732,1.055,0.696,1.311,0.920,0.412,0.726,0.687,�k��,8.3,��
2019/11/20,09:00,0.732,1.052,0.698,1.311,0.918,0.415,0.723,0.688,�k��,8.3,��
2019/11/20,09:10,0.732,1.052,0.697,1.312,0.921,0.416,0.724,0.687,���k��,6.9,��
2019/11/20,09:20,0.731,1.052,0.694,1.310,0.923,0.415,0.725,0.686,���k��,9.1,��
2019/11/20,09:30,0.730,1.050,0.694,1.311,0.921,0.414,0.724,0.686,�k��,9.1,��
2019/11/20,09:40,0.727,1.052,0.693,1.316,0.922,0.414,0.725,0.687,���k��,7.1,��
2019/11/20,09:50,0.728,1.054,0.694,1.313,0.922,0.414,0.725,0.688,�k��,8.5,��
2019/11/20,10:00,0.731,1.055,0.696,1.314,0.923,0.415,0.724,0.688,�k��,8.9,��
2019/11/20,10:10,0.731,1.052,0.696,1.311,0.923,0.416,0.724,0.689,�k��,8.9,��
2019/11/20,10:20,0.731,1.055,0.693,1.310,0.923,0.416,0.726,0.688,�k��,7.4,��
2019/11/20,10:30,0.732,1.053,0.697,1.316,0.924,-,0.725,0.688,�k��,9.1,��
2019/11/20,10:40,0.732,1.056,0.695,1.312,0.923,-,0.724,0.688,�k��,8.0,��
2019/11/20,10:50,0.730,1.058,0.698,1.314,0.925,-,0.726,0.687,�k��,8.5,��
2019/11/20,11:00,0.731,1.056,0.699,1.315,0.924,-,0.728,0.687,�k��,8.6,��
2019/11/20,11:10,0.731,1.058,0.699,1.313,0.922,-,0.725,0.689,�k��,8.8,��
2019/11/20,11:20,0.730,1.055,0.698,1.314,0.925,-,0.727,0.689,�k��,9.7,��
2019/11/20,11:30,0.732,1.056,0.699,1.312,0.924,-,0.727,0.688,�k��,10.8,��
2019/11/20,11:40,0.730,1.055,0.699,1.314,0.924,-,0.727,0.687,�k�k��,11.3,��
2019/11/20,11:50,0.732,1.059,0.700,1.317,0.924,-,0.726,0.687,�k��,9.7,��
2019/11/20,12:00,0.733,1.057,0.700,1.317,0.924,-,0.726,0.689,�k��,11.6,��
2019/11/20,12:10,0.733,1.058,0.699,1.315,0.925,-,0.727,0.689,�k�k��,9.1,��
2019/11/20,12:20,0.733,1.059,0.700,1.314,0.923,-,0.728,0.689,�k��,10.2,��
2019/11/20,12:30,0.734,1.059,0.701,1.317,0.924,-,0.727,0.688,�k��,8.8,��
2019/11/20,12:40,0.733,1.059,0.700,1.314,0.924,-,0.726,0.689,�k��,9.6,��
2019/11/20,12:50,0.735,1.058,0.701,1.315,0.922,-,0.726,0.688,���k��,11.2,��
2019/11/20,13:00,0.732,1.060,0.700,1.315,0.923,-,0.726,0.687,�k��,12.3,��
2019/11/20,13:10,0.735,1.059,0.701,1.317,0.923,-,0.726,0.687,�k��,9.6,��
2019/11/20,13:20,0.728,1.057,0.700,1.317,0.924,-,0.725,0.687,�k��,9.9,��
2019/11/20,13:30,0.729,1.060,0.699,1.314,0.921,-,0.726,0.686,�k��,11.2,��
2019/11/20,13:40,0.730,1.057,0.699,1.315,0.925,-,0.725,0.687,�k��,9.9,��
2019/11/20,13:50,0.729,1.056,0.699,1.316,0.924,-,0.726,0.685,�k��,6.6,��
2019/11/20,14:00,0.731,1.056,0.700,1.315,0.924,-,0.725,0.685,�k��,8.0,��
2019/11/20,14:10,0.737,1.056,0.697,1.316,0.926,-,0.727,0.685,�k��,6.6,��
2019/11/20,14:20,0.736,1.056,0.699,1.315,0.927,-,0.725,0.685,�k��,6.9,��
2019/11/20,14:30,0.736,1.059,0.701,1.314,0.928,-,0.728,0.685,�k�k��,6.6,��
2019/11/20,14:40,0.736,1.060,0.700,1.317,0.929,-,0.726,0.686,�k��,8.2,��
2019/11/20,14:50,0.737,1.062,0.701,1.316,0.926,-,0.728,0.688,�k��,8.0,��
2019/11/20,15:00,0.735,1.061,0.702,1.316,0.927,0.414,0.726,0.689,�k�k��,6.9,��
2019/11/20,15:10,0.735,1.062,0.701,1.317,0.925,0.413,0.725,0.688,�k��,7.1,��
2019/11/20,15:20,0.734,1.064,0.700,1.314,0.925,0.412,0.728,0.689,�k�k��,6.3,��
2019/11/20,15:30,0.734,1.063,0.700,1.318,0.927,0.413,0.726,0.688,�k�k��,5.6,��
2019/11/20,15:40,0.732,1.063,0.700,1.315,0.928,0.414,0.726,0.689,�k��,6.7,��
2019/11/20,15:50,0.735,1.059,0.701,1.317,0.927,0.414,0.727,0.687,�k��,6.0,��
2019/11/20,16:00,0.734,1.061,0.701,1.315,0.928,0.414,0.728,0.687,�k��,7.5,��
2019/11/20,16:10,0.733,1.063,0.700,1.316,0.926,0.413,0.728,0.687,�k��,6.3,��
2019/11/20,16:20,0.733,1.062,0.700,1.316,0.927,0.413,0.728,0.687,�k��,6.9,��
2019/11/20,16:30,0.734,1.063,0.700,1.315,0.927,0.414,0.727,0.687,�k�k��,5.2,��
2019/11/20,16:40,0.733,1.062,0.699,1.314,0.927,0.414,0.727,0.688,�k�k��,4.6,��
2019/11/20,16:50,0.731,1.062,0.700,1.317,0.926,0.415,0.727,0.688,�k��,5.0,��
2019/11/20,17:00,0.733,1.062,0.698,1.317,0.926,0.414,0.728,0.686,�k�k��,5.6,��
2019/11/20,17:10,0.734,1.061,0.699,1.317,0.925,0.414,0.726,0.688,�k�k��,4.7,��
2019/11/20,17:20,0.732,1.064,0.701,1.314,0.926,0.413,0.727,0.688,�k�k��,4.9,��
2019/11/20,17:30,0.733,1.063,0.701,1.317,0.926,0.414,0.727,0.688,�k,5.5,��
2019/11/20,17:40,0.732,1.064,0.699,1.317,0.926,0.414,0.726,0.689,�k�k��,5.6,��
2019/11/20,17:50,0.732,1.062,0.700,1.314,0.926,0.413,0.726,0.688,�k�k��,5.8,��
2019/11/20,18:00,0.733,1.062,0.698,1.314,0.926,0.414,0.724,0.687,�k�k��,6.7,��
2019/11/20,18:10,0.732,1.062,0.701,1.316,0.929,0.413,0.726,0.688,�k�k��,6.0,��
2019/11/20,18:20,0.732,1.061,0.700,1.316,0.927,0.412,0.726,0.687,�k�k��,5.2,��
2019/11/20,18:30,0.731,1.062,0.699,1.317,0.926,0.414,0.727,0.687,�k�k��,5.8,��
2019/11/20,18:40,0.732,1.064,0.699,1.315,0.925,0.414,0.725,0.689,�k�k��,4.3,��
2019/11/20,18:50,0.732,1.062,0.699,1.315,0.925,0.413,0.728,0.688,�k�k��,4.5,��
2019/11/20,19:00,0.732,1.063,0.700,1.316,0.927,0.412,0.726,0.688,�k�k��,4.2,��
2019/11/20,19:10,0.733,1.063,0.699,1.315,0.927,0.414,0.726,0.684,�k�k��,4.2,��
2019/11/20,19:20,0.732,1.061,0.701,1.313,0.928,0.413,0.725,0.689,�k�k��,4.0,��
2019/11/20,19:30,0.731,1.061,0.699,1.314,0.927,0.413,0.725,0.687,�k�k��,3.2,��
2019/11/20,19:40,0.731,1.062,0.700,1.314,0.927,0.413,0.724,0.686,�k�k��,4.1,��
2019/11/20,19:50,0.730,1.061,0.699,1.315,0.926,0.412,0.724,0.687,�k,3.9,��
2019/11/20,20:00,0.731,1.061,0.699,1.313,0.926,0.414,0.724,0.687,�k�k��,3.8,��
2019/11/20,20:10,0.732,1.060,0.696,1.315,0.924,0.413,0.725,0.687,�k�k��,4.9,��
2019/11/20,20:20,0.730,1.061,0.700,1.315,0.925,0.411,0.724,0.689,�k�k��,4.2,��
2019/11/20,20:30,0.730,1.060,0.699,1.314,0.926,0.412,0.724,0.687,�k��,3.6,��
2019/11/20,20:40,0.731,1.060,0.698,1.316,0.925,0.413,0.724,0.687,�k�k��,2.8,��
2019/11/20,20:50,0.731,1.063,0.700,1.314,0.924,0.413,0.724,0.685,�k,2.7,��
2019/11/20,21:00,0.731,1.063,0.700,1.315,0.927,0.411,0.724,0.687,�k,2.8,��
2019/11/20,21:10,0.732,1.058,0.697,1.315,0.924,0.412,0.725,0.686,�k�k��,2.0,��
2019/11/20,21:20,0.731,1.062,0.699,1.316,0.924,0.412,0.725,0.688,�k�k��,2.9,��
2019/11/20,21:30,0.732,1.060,0.699,1.313,0.926,0.412,0.724,0.686,�k�k��,2.8,��
2019/11/20,21:40,0.730,1.059,0.698,1.314,0.925,0.413,0.723,0.686,�k��,2.4,��
2019/11/20,21:50,0.731,1.060,0.699,1.315,0.925,0.412,0.722,0.686,�k��,2.2,��
2019/11/20,22:00,0.733,1.061,0.699,1.316,0.925,0.413,0.725,0.687,�k��,1.6,��
2019/11/20,22:10,0.729,1.058,0.699,1.316,0.924,0.412,0.724,0.688,�k��,1.6,��
2019/11/20,22:20,0.732,1.059,0.697,1.313,0.924,0.414,0.723,0.686,�k��,1.8,��
2019/11/20,22:30,0.731,1.060,0.700,1.314,0.926,0.413,0.724,0.686,�k�k��,1.5,��
2019/11/20,22:40,0.732,1.058,0.698,1.316,0.925,0.413,0.725,0.686,�k,1.4,��
2019/11/20,22:50,0.732,1.059,0.699,1.313,0.927,0.412,0.726,0.685,�k�k��,1.1,��
2019/11/20,23:00,0.732,1.057,0.699,1.314,0.924,0.413,0.724,0.687,�k,0.9,��
2019/11/20,23:10,0.732,1.060,0.698,1.315,0.926,0.412,0.724,0.686,���k��,0.5,��
2019/11/20,23:20,0.731,1.059,0.697,1.313,0.924,0.413,0.722,0.686,���쐼,1.7,��
2019/11/20,23:30,0.731,1.060,0.697,1.315,0.925,0.413,0.724,0.687,���쐼,1.5,��
2019/11/20,23:40,0.731,1.057,0.697,1.312,0.924,0.415,0.724,0.688,���쐼,1.2,��
2019/11/20,23:50,0.731,1.059,0.697,1.312,0.926,0.414,0.724,0.686,��,1.2,��
